Tracking 28794 objects as of 19-Apr-2024
HD Live streaming from Space Station
objects crossing your sky now

OPS 4682 DEB

Track OPS 4682 DEB now!
10-day predictions


NORAD ID: 38406
Int'l Code: 1965-027DK
Perigee: 1,251.7 km
Apogee: 1,288.6 km
Inclination: 90.2 °
Period: 110.8 minutes
Semi major axis: 7641 km
RCS: 0.0084 m2 (small)
Launch date: April 3, 1965
Source: United States (US)
Launch site: AIR FORCE WESTERN TEST RANGE (AFWTR)

Note: This is SATELLITE DEBRIS
Your satellite tracking list
Your tracking list is empty




NASA's NSSDC Master Catalog

Two Line Element Set (TLE):
1 38406U 65027DK  24107.44570247  .00001061  00000-0  35088-2 0  9992
2 38406  90.2433 353.6937 0024124 180.1164 179.9956 12.99760464452391
Source of the keplerian elements: AFSPC